CAPE
435 74 447 868 819 908 1106 1007 1019 1030 862 470 274 143 70 35 13 3 0 7 116 114 289 282 456 174 134 227 283 299 302 725 965 1020 1200 872 472 331 437 398 722 1014 1137
559 678 1072 1021 1058 506 756 949 958 890 798 565 530 362 240 220 152 126 16 1 158 293 478 262 198 390 105 259 139 194 284 564 235 412 1089 734 395 239 209 207 477 949 1206
1096 761 490 591 143 228 94 535 152 878 823 743 618 466 424 340 214 195 156 180 243 351 378 344 137 168 331 204 68 84 222 229 292 321 518 372 327 337 237 210 293 434 886
1172 882 592 150 14 0 304 436 214 817 905 452 320 137 123 134 227 236 291 372 307 203 72 215 80 91 463 271 294 165 73 273 69 259 215 336 272 278 240 193 252 330 240
1260 1227 690 151 29 162 739 650 325 601 903 630 649 590 384 336 505 541 398 302 218 26 91 76 76 25 64 341 249 135 164 98 36 15 94 82 285 265 226 193 171 329 225
1064 928 1064 487 221 536 1058 640 536 872 997 921 625 569 560 416 423 529 342 211 0 0 0 0 1 7 24 75 43 66 141 69 57 49 94 34 237 196 312 258 197 163 261
780 846 869 940 865 756 805 932 1116 1102 424 745 762 660 533 320 366 521 259 5 0 0 0 0 0 0 3 18 30 69 118 111 159 130 114 85 8 65 290 315 260 172 194
1119 857 623 967 1241 1388 1237 1070 1163 871 950 732 919 534 220 181 246 258 79 0 0 0 0 0 0 0 0 0 0 34 79 153 371 311 143 101 74 26 53 141 268 306 220
964 872 593 754 1469 1474 1335 1206 994 1072 1119 759 897 671 135 51 188 29 3 0 0 0 0 0 0 0 0 0 0 0 4 56 195 406 419 28 33 8 0 123 226 276 307
722 1131 866 904 991 1353 1721 1439 1207 1634 1092 937 672 595 480 428 496 346 7 0 0 0 0 0 0 0 8 2 1 7 85 105 217 234 290 21 26 56 74 102 133 169 324
913 846 852 1087 974 1325 1685 1651 1585 1869 1325 1012 898 1163 828 643 489 584 430 84 0 0 0 0 0 0 0 0 0 1 31 364 302 339 192 61 29 42 40 24 108 205 366
1395 853 1049 1004 1077 1528 1928 1948 1823 1217 1139 912 1146 1044 990 969 890 744 576 224 0 1 0 0 0 0 0 0 0 105 266 325 301 314 180 73 71 35 29 84 110 114 302
1518 1372 1080 1144 1317 1593 1983 2018 1265 1063 918 1080 1324 1319 1110 1063 871 792 663 234 0 3 0 0 0 0 0 0 1 181 361 263 275 212 143 157 150 80 24 4 55 79 167
1192 1246 1563 1531 1529 1883 1877 950 970 1142 1139 1650 1653 1640 1568 1171 1073 909 788 226 2 4 1 0 0 0 0 0 5 71 206 56 1 80 108 0 23 45 0 40 64 24 131
1457 1573 1319 1070 1586 1299 575 961 1128 1142 1592 1822 1915 1619 1493 1362 1289 921 417 32 21 1 2 4 0 0 0 0 0 0 0 61 78 115 97 94 109 67 87 18 5 29 104
1288 1337 1040 970 896 822 806 1215 1317 1438 1969 1988 1457 1539 1495 1324 1210 515 107 1 0 0 1 1 2 0 0 0 0 0 4 38 98 92 86 43 23 17 0 2 26 34 119
772 1029 1310 1198 864 1087 1303 1607 1803 1680 1502 1417 1263 1274 903 911 792 448 64 0 0 0 0 0 0 0 0 0 0 0 0 0 16 42 41 16 7 1 9 3 0 93 146
785 707 874 1400 1542 1553 1613 2015 2084 1881 1256 1465 999 758 346 294 429 219 53 3 0 0 0 0 0 0 0 0 0 0 0 0 4 18 0 0 7 1 2 4 0 43 155
1155 1057 1584 1901 1799 1732 1739 2317 2323 1999 1433 1365 905 502 242 297 468 170 19 0 0 0 0 0 0 0 0 0 0 0 0 0 0 5 4 1 2 0 0 0 0 9 86
1395 1171 852 1061 1539 1628 1782 2404 2196 1806 1547 1092 601 315 201 302 340 151 5 0 0 0 0 0 0 0 0 0 0 0 0 0 0 0 0 0 2 3 2 0 0 0 6
1419 1493 1405 1113 1177 1409 1990 2243 1992 1786 1273 831 425 203 158 333 258 55 0 0 0 0 0 0 0 0 0 0 0 0 0 0 0 0 0 0 0 0 0 3 0 0 0
1748 1611 1573 1654 1436 1809 2149 2197 1870 1588 1123 743 415 108 8 103 50 8 0 0 0 0 0 0 0 0 0 0 0 0 0 0 0 0 0 0 0 0 0 0 0 0 0
1854 1758 1687 1544 1690 1699 1743 1800 1379 1214 1073 706 313 15 0 0 0 0 0 0 0 0 0 0 0 0 0 0 0 0 0 0 0 0 0 0 0 0 0 0 0 0 0
2016 1995 1860 1729 1689 1732 1471 1468 1093 1039 835 516 185 0 0 0 0 0 0 0 0 0 0 0 0 0 0 0 0 0 0 0 0 0 0 0 0 0 0 0 0 0 0
2153 2151 2174 2026 1882 1465 989 917 670 815 588 297 123 0 0 0 0 0 0 0 0 0 0 0 0 0 0 0 0 0 0 0 0 0 0 0 0 0 0 0 0 0 0
2085 2160 2225 1598 1097 568 2 1 90 637 452 205 41 5 0 0 0 0 0 0 0 0 0 0 0 0 0 0 0 0 0 0 0 0 0 0 0 0 0 0 0 0 0
CIN
-68 -110 -74 -62 -68 -77 -72 -75 -60 -51 -75 -127 -155 -179 -208 -235 -94 -64 0 -203 -139 -132 -81 -47 -34 -81 -67 -10 -5 -5 -10 -1 -1 -4 0 -2 -20 -19 -13 -17 -9 -3 0
-70 -81 -63 -54 -67 -103 -80 -73 -73 -79 -78 -108 -115 -152 -162 -179 -181 -176 -163 -30 -145 -109 -86 -44 -45 -16 -40 -28 -14 -7 -5 -1 -12 -7 -1 -2 -10 -23 -29 -35 -12 -3 -1
-49 -64 -84 -68 -118 -115 -143 -90 -124 -107 -88 -98 -99 -109 -111 -122 -145 -137 -174 -176 -148 -131 -89 -42 -43 -15 -1 -7 -16 -9 -1 -3 -10 -6 -9 -8 -5 -8 -20 -25 -19 -18 -4
-49 -60 -80 -103 -102 0 -122 -79 -76 -41 -46 -60 -69 -85 -110 -114 -114 -124 -137 -145 -149 -131 -92 -30 -15 -17 0 -1 -2 -18 -8 0 -9 -2 -7 -3 -17 -7 -8 -19 -22 -18 -31
-41 -50 -63 -84 -149 -136 -76 -67 -62 -62 -36 -45 -53 -66 -84 -73 -89 -90 -101 -110 -106 -103 -63 -38 -10 -15 -10 0 -3 -8 -1 -2 -30 -36 -6 -4 -5 -9 -9 -11 -20 -13 -38
-48 -52 -64 -85 -116 -65 -43 -56 -61 -61 -52 -42 -46 -47 -61 -83 -102 -90 -93 -97 0 -11 0 -20 -51 -19 -7 -2 -9 -11 -8 -5 -11 -6 -5 -14 -11 -8 -6 -8 -11 -19 -17
-55 -56 -61 -68 -79 -57 -41 -46 -47 -36 -42 -42 -30 -36 -58 -125 -112 -78 -95 -32 0 0 0 0 0 0 -13 -8 -18 -8 -30 -3 0 0 -1 -4 -11 -6 0 -2 -2 -14 -19
-62 -56 -54 -45 -53 -40 -34 -40 -43 -41 -40 -50 -21 -39 -92 -124 -121 -106 -169 0 0 0 0 0 0 0 0 0 0 -14 -6 -11 0 0 0 -1 -12 0 -2 -4 -3 -3 -9
-73 -75 -69 -57 -45 -43 -25 -33 -42 -43 -22 -43 -37 -12 -82 -156 -88 -224 -53 0 0 0 0 0 0 0 0 0 0 0 -27 -24 -1 0 0 -17 -8 -5 -7 0 -3 -2 -3
-58 -69 -67 -50 -44 -54 -35 -29 -44 -27 -60 -41 -49 -48 -40 -22 -3 -40 -71 0 0 0 0 0 0 0 -116 -145 -96 -33 -23 -25 -5 -2 -1 -67 -16 -11 -2 0 -1 -7 -1
-81 -61 -67 -54 -53 -38 -33 -26 -18 -19 -35 -37 -24 -16 -40 -45 -41 -7 -23 -116 0 0 0 0 0 0 -6 0 0 -32 -47 -4 -9 0 -6 -15 -24 -12 -20 -24 -13 -17 -4
-72 -63 -55 -47 -50 -35 -28 -25 -31 -47 -43 -51 -30 -34 -30 -20 -14 -5 -15 -56 0 0 0 0 0 0 0 -7 0 -15 -1 -2 -3 0 -4 -34 -19 -14 -3 -26 -25 -12 -7
-44 -30 -47 -46 -58 -35 -35 -37 -51 -60 -70 -53 -35 -24 -44 -44 -41 -25 -19 -55 0 0 0 0 0 0 0 0 -8 -12 0 -8 -2 -7 -22 -30 -19 -2 -18 -30 -11 -29 -4
-49 -59 -41 -52 -57 -49 -44 -66 -70 -79 -75 -41 -30 -26 -18 -34 -33 -27 -11 -65 0 0 0 0 0 0 0 0 -5 -13 0 -51 -49 -45 -46 -7 -157 -92 -2 -12 -26 -75 -2
-54 -45 -46 -44 -43 -50 -92 -81 -73 -78 -68 -45 -28 -33 -31 -31 -28 -28 -89 -198 -138 -5 0 0 0 0 0 0 0 0 0 -3 -15 -54 -64 -64 -18 -16 -31 -14 -67 -28 -9
-79 -63 -66 -65 -61 -70 -89 -81 -79 -78 -54 -45 -69 -50 -36 -45 -29 -107 -194 -31 0 -8 0 0 -2 0 0 0 0 0 -2 -1 -4 -6 -4 -5 -20 -72 0 -86 -83 -57 -24
-141 -104 -72 -73 -88 -68 -71 -67 -55 -62 -59 -81 -82 -73 -95 -91 -72 -104 -205 0 0 0 0 0 0 0 0 0 0 0 0 0 0 -1 0 -12 -57 -36 -79 -74 0 -58 -38
-192 -169 -130 -84 -77 -69 -63 -41 -41 -62 -96 -84 -102 -124 -163 -190 -118 -146 -233 -54 0 0 0 0 -3 0 0 0 0 0 0 0 -3 -2 0 0 -42 -27 -81 -91 0 -100 -51
-196 -186 -118 -76 -73 -66 -57 -34 -44 -68 -97 -99 -129 -172 -257 -233 -115 -163 -232 0 0 0 0 0 0 0 0 0 0 0 0 0 0 -1 -5 -48 -46 0 0 0 -35 -121 -75
-226 -213 -219 -167 -110 -98 -84 -45 -66 -79 -107 -137 -169 -231 -284 -234 -169 -189 -126 0 0 0 0 0 0 0 0 0 0 0 0 0 0 0 0 -2 -73 -52 -114 -11 0 0 -57
-225 -222 -194 -194 -184 -165 -106 -67 -87 -91 -130 -169 -200 -253 -286 -170 -176 -277 0 0 0 0 0 0 0 0 0 0 0 0 0 0 0 0 0 0 0 0 -19 -128 0 0 0
-186 -189 -188 -166 -166 -152 -123 -95 -107 -113 -153 -161 -181 -294 -165 -258 -261 -235 0 0 0 0 0 0 0 0 0 0 0 0 0 0 0 0 0 0 0 0 0 0 0 0 0
-169 -155 -149 -148 -160 -148 -154 -134 -162 -168 -161 -177 -211 -314 0 0 0 0 0 0 0 0 0 0 0 0 0 0 0 0 0 0 0 0 0 0 0 0 0 0 0 0 0
-168 -150 -126 -128 -118 -134 -187 -179 -200 -192 -201 -212 -261 0 0 0 0 0 0 0 0 0 0 0 0 0 0 0 0 0 0 0 0 0 0 0 0 0 0 0 0 0 0
-121 -133 -142 -120 -95 -134 -215 -209 -227 -181 -194 -228 -257 0 0 0 0 0 0 0 0 0 0 0 0 0 0 0 0 0 0 0 0 0 0 0 0 0 0 0 0 0 0
-79 -92 -51 -120 -177 -256 0 0 -282 -138 -196 -240 -293 -274 0 0 0 0 0 0 0 0 0 0 0 0 0 0 0 0 0 0 0 0 0 0 0 0 0 0 0 0 0
Wind_Speed
17 15 15 13 11 11 10 9 9 9 10 9 7 6 5 6 8 6 6 6 7 8 6 2 2 7 13 16 21 18 15 14 11 11 10 11 10 11 6 6 2 3 1
16 14 14 13 11 11 11 10 9 9 9 7 5 5 5 4 6 6 6 7 9 6 5 1 3 3 8 19 18 17 20 19 15 11 10 10 9 10 7 5 4 2 1
15 13 13 12 11 12 11 10 10 9 8 6 4 5 4 3 1 3 3 2 3 4 5 4 5 4 6 18 26 16 14 15 12 11 12 10 10 10 9 8 6 5 2
15 13 12 11 13 11 9 10 8 10 8 7 5 4 3 3 3 1 1 2 1 1 2 4 7 13 13 14 21 17 19 11 12 13 15 11 11 11 11 11 8 6 6
14 14 13 12 13 12 11 11 11 10 8 8 4 3 2 0 1 3 3 5 5 7 6 6 7 8 15 14 4 2 8 8 11 13 14 11 12 13 13 12 10 9 7
14 15 13 12 12 12 11 11 10 9 8 5 3 3 4 1 5 5 5 8 10 11 13 11 12 5 3 6 12 4 6 5 9 12 12 16 11 13 13 14 13 12 12
16 15 13 12 11 10 9 9 9 9 8 9 5 4 6 11 8 7 8 8 11 14 15 15 13 15 15 6 10 5 3 6 6 7 9 10 15 19 16 14 14 14 15
15 14 13 11 11 10 9 7 7 10 9 8 8 8 8 9 8 5 6 5 6 12 15 19 17 16 17 16 13 13 13 3 7 9 10 11 11 14 19 16 17 15 21
15 13 12 11 10 9 10 8 9 8 4 6 7 7 9 9 10 11 5 4 6 11 16 16 14 14 15 17 16 16 18 18 12 11 14 13 14 15 21 19 16 18 18
19 14 11 10 11 9 7 8 10 6 5 2 2 5 4 6 12 14 12 11 10 13 14 13 14 14 18 21 21 21 20 16 15 20 15 8 7 13 13 16 18 18 20
16 13 10 8 9 9 7 5 4 5 3 3 3 6 8 9 10 11 14 16 15 16 15 15 14 17 20 20 21 19 16 13 9 8 5 10 7 11 16 14 21 24 25
9 7 8 8 10 12 8 5 4 4 6 3 5 7 9 11 12 13 13 15 17 17 15 15 16 19 21 23 22 21 14 12 3 2 3 4 4 3 5 17 22 26 27
11 6 7 10 11 12 8 7 5 12 7 5 7 7 10 10 12 12 13 15 16 15 14 15 17 19 21 22 22 22 20 12 7 5 4 2 4 2 7 12 18 25 26
4 9 14 9 7 7 6 7 6 14 5 7 6 9 9 12 13 13 15 15 17 16 13 12 17 19 21 22 22 21 18 14 11 8 5 5 6 5 3 11 17 21 29
4 5 4 4 6 6 4 4 4 5 4 8 10 13 12 14 14 16 16 14 15 16 15 13 15 18 21 22 22 20 16 13 10 9 7 6 7 3 5 5 17 25 22
10 4 0 6 4 5 4 6 4 11 7 16 15 16 16 16 15 18 19 17 15 16 16 14 15 17 20 22 23 21 19 16 13 11 8 8 3 2 9 8 11 23 27
13 9 4 2 1 2 4 3 5 4 13 21 21 21 19 18 17 18 19 19 17 16 17 17 17 18 20 21 22 22 21 19 15 12 7 3 5 4 6 14 20 20 25
13 14 12 10 11 7 2 3 5 18 21 21 21 23 23 22 17 17 18 18 18 18 18 18 18 18 20 20 21 22 22 21 18 15 11 6 9 8 9 18 21 20 21
13 12 12 15 14 12 6 2 8 19 18 18 18 19 21 21 16 16 16 18 18 18 18 19 19 18 19 19 21 21 22 21 21 18 17 6 8 11 17 16 20 21 17
11 14 14 17 15 11 4 5 10 18 14 15 17 18 19 18 15 15 16 17 17 18 18 19 20 19 19 18 19 20 21 21 21 19 18 8 9 11 16 19 21 20 18
5 8 8 7 7 4 4 5 9 11 13 14 16 19 20 18 14 14 15 15 16 17 18 18 18 18 17 19 19 19 20 20 19 19 20 19 17 14 18 20 21 22 19
9 7 7 6 6 7 5 4 7 9 12 13 14 17 18 17 15 14 14 15 15 16 17 17 17 17 17 18 19 19 21 20 19 20 22 22 21 21 21 20 20 20 20
22 18 15 12 10 10 8 7 8 10 11 12 13 15 16 15 13 13 14 15 16 14 16 16 16 16 17 17 19 19 19 19 19 22 22 23 22 23 23 22 20 19 20
27 25 22 18 16 16 12 11 10 11 11 11 11 13 15 13 11 11 13 13 14 15 13 14 14 15 16 17 17 19 19 19 17 23 21 23 23 24 23 22 22 22 22
32 26 24 24 23 21 18 17 15 15 15 15 14 13 12 11 9 10 12 12 11 12 12 11 12 14 15 17 18 18 19 19 20 22 22 21 22 22 22 22 21 22 22
37 32 32 30 26 27 25 24 20 17 16 17 16 12 10 10 7 8 10 10 10 11 11 11 12 15 16 17 18 17 18 19 20 20 22 21 22 21 21 21 23 23 23
Wind_Direction
164 155 171 160 149 136 140 143 148 155 165 167 165 175 163 187 204 201 198 200 198 191 187 121 68 210 211 209 207 201 209 217 231 197 203 190 184 169 183 158 196 276 260
168 158 171 156 148 126 130 119 125 139 145 147 160 171 192 199 206 210 218 212 207 205 202 291 332 256 221 213 208 205 203 200 201 217 210 209 221 188 214 204 183 250 159
165 150 156 152 152 133 130 128 107 117 139 132 131 123 88 74 138 216 225 198 206 205 218 246 281 312 241 211 217 209 215 219 223 236 246 215 203 217 222 228 185 177 193
157 144 152 155 146 132 126 105 96 89 107 101 104 100 84 68 46 61 156 177 146 69 3 278 279 262 240 212 208 205 202 215 205 251 195 204 210 217 226 230 198 189 233
160 160 160 138 127 119 118 104 87 80 85 80 113 143 85 107 52 72 88 67 66 38 23 355 311 280 243 208 235 283 185 194 192 202 210 216 208 215 218 229 220 210 214
166 170 157 145 126 121 114 95 83 73 71 73 74 70 30 336 38 62 68 46 35 25 14 6 359 337 242 161 196 205 188 223 185 190 203 204 214 206 218 203 218 221 228
165 164 157 149 140 133 123 97 75 65 60 59 48 37 38 38 55 58 40 33 22 14 9 5 6 19 16 96 160 140 247 266 238 249 255 235 232 254 238 226 217 206 231
159 163 156 145 132 113 109 102 77 53 60 58 50 44 52 47 64 58 57 45 22 13 7 8 21 24 11 355 0 343 317 254 275 275 271 253 230 229 251 236 227 219 236
174 160 155 147 141 120 98 100 69 66 75 68 68 72 58 49 34 50 55 45 20 11 10 16 31 35 17 357 351 336 318 310 304 292 277 266 248 243 247 243 226 231 233
213 179 160 156 157 145 119 83 65 87 77 236 103 106 103 56 34 31 43 34 29 20 20 32 32 29 7 348 341 328 320 318 308 302 287 253 275 251 240 245 240 235 236
212 178 162 148 162 171 165 104 138 102 141 211 105 66 53 47 43 31 18 27 30 27 29 33 36 24 5 0 350 343 338 334 326 331 327 301 287 253 259 255 247 239 237
353 138 159 165 183 199 176 156 157 168 208 139 85 61 50 39 33 30 22 23 24 29 37 39 30 14 9 1 357 352 354 348 14 6 344 306 306 264 277 256 246 239 234
13 135 152 192 188 188 166 174 175 237 217 93 67 57 51 44 39 35 26 24 26 36 41 39 30 24 14 11 6 356 353 13 35 71 52 1 359 286 256 261 249 236 237
88 41 360 31 111 85 128 168 186 239 173 73 61 48 48 42 41 37 27 27 27 33 43 47 35 28 20 16 7 8 22 46 59 73 76 63 65 82 303 247 243 231 228
151 150 56 70 43 54 97 109 115 171 109 52 43 36 41 37 40 33 31 36 35 30 37 49 43 36 26 22 15 20 33 45 54 71 80 90 95 51 306 281 233 234 234
194 191 48 8 33 26 52 42 105 299 52 26 28 28 32 32 37 34 37 42 47 43 40 56 53 48 39 34 24 28 37 42 48 52 50 58 345 13 269 273 239 231 227
203 203 208 191 135 46 53 76 49 62 21 7 14 14 22 27 33 37 40 44 47 51 51 55 64 56 50 49 40 41 45 44 36 32 10 20 288 346 277 246 229 234 227
205 206 202 191 190 182 58 48 190 352 350 0 8 8 11 16 35 41 44 44 50 57 56 66 68 64 60 61 58 52 53 52 45 34 18 357 259 285 272 233 225 231 226
207 201 194 196 195 200 189 37 5 345 353 1 12 13 14 18 38 43 46 47 55 61 67 72 68 72 73 71 62 61 59 59 69 50 46 350 282 264 231 229 220 223 227
208 209 205 206 205 206 207 352 357 341 357 7 10 11 14 22 41 46 50 51 61 64 74 74 71 75 79 76 72 72 79 83 97 132 153 251 246 240 219 213 212 218 226
239 218 214 214 218 274 309 337 347 352 350 1 5 3 6 19 42 52 56 61 69 70 76 78 75 79 88 81 85 93 94 109 125 150 150 170 198 218 210 212 213 215 222
285 286 293 257 278 293 290 300 334 340 343 351 356 359 4 18 33 46 58 70 80 76 78 82 84 86 100 95 93 109 104 118 126 146 152 158 172 188 198 212 221 224 226
298 297 298 295 277 282 283 294 319 327 334 341 349 355 1 14 36 48 60 74 83 82 84 89 94 100 108 111 109 115 127 124 134 141 163 157 170 175 187 200 213 221 223
299 294 292 287 285 287 277 280 295 309 319 330 343 350 355 9 35 60 68 77 80 84 89 93 106 112 117 118 118 118 130 130 149 139 162 154 167 171 187 200 207 214 220
301 298 290 287 285 285 280 282 289 297 306 316 328 340 354 9 43 71 69 79 83 88 75 98 121 123 126 126 117 115 125 134 131 147 156 166 166 184 198 206 214 217 221
298 297 296 296 296 292 294 291 288 284 290 303 313 328 347 3 50 74 73 77 81 93 86 79 97 121 126 135 127 130 122 139 148 150 173 177 187 196 210 218 217 220 222